Back to catalog

GAOFEN 14

AliveScienceSSO
NORAD 47231·PAYLOAD·🇨🇳 China

Launched Dec 6, 2020 from Xichang Satellite Launch Center

Loading…

Next Passes (next 24 hours)

TLE

FreshSource: Space-Track

Epoch: Sep 14, 2026, 13:02 UTC

1 47231U 20092A   26257.54373454  .00005040  00000-0  20033-3 0  9997
2 47231  97.4644 327.6477 0005231 182.9419 177.1789 15.25747337321453

Track GAOFEN 14 in real time with AllMySat

Download on the App Store